sat.trackr.live / text

‹ back to catalog

HULIANWANG DIGUI-112

NORAD 66922 · 2025-285H

PAYLOAD ACTIVE UNKNOWN

§ Identity

Operator
Country
PRC
Launch date
2025-12-06
Launch site
WSC
Launch vehicle
Mass (kg)
RCS (m²)

External: N2YO · Heavens-Above · Gunter

§ Orbital elements

Epoch: 2026-05-25T04:30:20.112192Z

Period
108.33 min
Inclination
50.0080°
Eccentricity
0.0001064
Mean motion
13.29325211 rev/d
Perigee alt
1,148.5 km
Apogee alt
1,150.1 km
Semi-major
7,527.4 km
B*
5.8423e-5
RAAN
228.2433°
Arg perigee
211.8768°
Mean anomaly
148.2040°
Rev number
2,300

§ Raw data

HULIANWANG DIGUI-1121 66922U 25285H   26145.18773278 -.00000097  00000+0  58423-4 0  99902 66922  50.0080 228.2433 0001064 211.8768 148.2040 13.29325211 23001

JSON: /api/v1/satellites/66922 · /tle

For live sub-satellite position, see the globe view (requires WebGL).

§ Visibility from observer

Set your observer location to see the next 7 days of passes ≥ 10°. The values pass through the URL so the page stays shareable.

No JS? Fill the form by hand. The geolocation button needs JavaScript.